This is the latest recevied weather packets stored in our database for station/object N7MLR. If no packets are shown the sender has not sent any weather packets the latest 10 day(s).
| Time | Temp. | Humidity | Pressure | Rain* | Wind** | Luminosity | Snow |
|---|---|---|---|---|---|---|---|
| 1777598198 | 20° C | 87% | 1010.1 hPa | 0 mm | - | 0 W/m² | - |
| 1777597897 | 20° C | 87% | 1009.6 hPa | 0 mm | - | 0 W/m² | - |
| 1777597592 | 20° C | 86% | 1010 hPa | 0 mm | - | 0 W/m² | - |
| 1777597288 | 20.56° C | 86% | 1010.3 hPa | 0 mm | - | 0 W/m² | - |
| 1777596983 | 20.56° C | 85% | 1009.9 hPa | 0 mm | - | 1 W/m² | - |
| 1777596681 | 20.56° C | 85% | 1010.2 hPa | 0 mm | - | 3 W/m² | - |
| 1777596378 | 20.56° C | 85% | 1010 hPa | 0 mm | - | 6 W/m² | - |
| 1777596074 | 21.11° C | 85% | 1010 hPa | 0 mm | - | 7 W/m² | - |
| 1777595769 | 21.11° C | 84% | 1010 hPa | 0 mm | - | 10 W/m² | - |
| 1777595465 | 21.67° C | 83% | 1009.8 hPa | 0 mm | - | 12 W/m² | - |
| 1777595162 | 21.67° C | 83% | 1010 hPa | 0 mm | - | 25 W/m² | - |
| 1777594858 | 21.67° C | 83% | 1010.1 hPa | 0 mm | - | 41 W/m² | - |
| 1777594554 | 21.67° C | 82% | 1010.4 hPa | 0 mm | - | 30 W/m² | - |
| 1777594251 | 22.22° C | 82% | 1010.2 hPa | 0 mm | - | 40 W/m² | - |
| 1777593946 | 22.22° C | 81% | 1010.3 hPa | 0 mm | - | 52 W/m² | - |
| 1777593643 | 22.78° C | 80% | 1010.4 hPa | 0 mm | - | 78 W/m² | - |
| 1777593339 | 22.78° C | 80% | 1010.2 hPa | 0 mm | - | 91 W/m² | - |
| 1777593033 | 22.78° C | 79% | 1010 hPa | 0 mm | - | 78 W/m² | - |
| 1777592732 | 22.78° C | 78% | 1009.8 hPa | 0 mm | - | 95 W/m² | - |
| 1777592428 | 22.78° C | 77% | 1009.6 hPa | 0 mm | - | 98 W/m² | - |
| 1777592124 | 22.78° C | 76% | 1009.5 hPa | 0 mm | - | 99 W/m² | - |
| 1777591821 | 23.33° C | 75% | 1009.7 hPa | 0 mm | - | 77 W/m² | - |
| 1777591517 | 23.33° C | 75% | 1009.6 hPa | 0 mm | - | 104 W/m² | - |
| 1777591214 | 23.33° C | 73% | 1009.7 hPa | 0 mm | - | 97 W/m² | - |
| 1777590909 | 23.33° C | 73% | 1009.6 hPa | 0 mm | - | 114 W/m² | - |
* Rain latest hour (hover to see other rain measurements)
** Current wind speed in m/s (hover to see current wind gust speed)